[[{"header":{"parameterUnit":"m.s-1","parameterCategory":1,"la1":30.2991,"la2":30.254,"lo1":-89.0895,"lo2":-89.0444,"dy":0.0017,"dx":0.0017,"nx":28,"ny":28,"refTime":"2025-03-10T09:00:00:Z","depth":0,"parameterNumber":2,"parameterNumberName":"U-component_of_WINDS"},"data":[0,0,0,0,0,0,0,0,0,0,0,0,0,0,0,0,0,0,0,0,0,0,0,0,0,0,0,0,0,0,0,0,0,0,0,0,0,0,0,0,0,0,0,0,0,0,0,0,0,0,0,0,0,0,0,0,0,0,0.9206,0.9207,0,0.9256,0.9256,0.9257,0.9274,0.9274,0.9274,0.9273,0.9324,0.9325,0.9327,0,0,0,0,0,0,0,0,0,0,0,0,0,0.9127,0.9128,0.9206,0.9207,0.9208,0.9256,0.9256,0.9257,0.9274,0.9274,0.9274,0.9273,0.9323,0.9325,0.9327,0,0,0,0,0,0,0,0,0,0,0,0,0,0.9167,0.9129,0.9206,0.9222,0.9224,0.9255,0.9256,0.9257,0.9274,0.9274,0.9274,0.9273,0.9323,0.9325,0.9327,0.9346,0,0,0.9334,0.9335,0,0,0,0,0,0,0,0,0.9165,0.917,0.9219,0.9221,0.9223,0.9258,0.9247,0.9287,0.9274,0.9255,0.9273,0.9273,0.9302,0.9306,0.9316,0.9349,0.9351,0.9334,0.9335,0.9336,0.9337,0,0,0,0,0,0,0,0.9162,0.9168,0.9226,0.922,0.9222,0.9226,0.9232,0.9254,0.9279,0.9257,0.9258,0.9264,0.9303,0.9314,0.9317,0.9352,0.9334,0.9336,0.9337,0.9338,0.9403,0.9404,0,0,0,0,0,0,0.9157,0.9166,0.9224,0.9227,0.9193,0.9228,0.9234,0.9247,0.9279,0.9284,0.9264,0.9264,0.931,0.9315,0.9319,0.9344,0.9336,0.9338,0.934,0.9403,0.9403,0.9404,0,0,0,0,0,0,0.9155,0.9162,0.9222,0.9197,0.9205,0.923,0.9244,0.9248,0.9259,0.9285,0.9289,0.927,0.931,0.9316,0.934,0.9346,0.934,0.9342,0.9402,0.9403,0.9403,0.9394,0,0,0,0,0,0,0.9153,0.9161,0.9169,0.9197,0.9206,0.9242,0.9245,0.925,0.9263,0.9264,0.9292,0.9296,0.931,0.9336,0.9342,0.9349,0.9343,0.9402,0.9403,0.9403,0.9394,0.9394,0.9394,0,0,0,0,0,0.915,0.9164,0.9169,0.9176,0.9216,0.9242,0.9248,0.9264,0.9263,0.9271,0.9288,0.9295,0.9344,0.9338,0.9345,0.9353,0.9402,0.9402,0.9403,0.9394,0.9394,0.9394,0,0,0,0,0,0,0.9136,0.9168,0.9174,0.9198,0.9217,0.9245,0.9256,0.9264,0.9283,0.9284,0.9303,0.9309,0.9331,0.9344,0.9337,0.9374,0.9373,0.9376,0.9364,0.9365,0.9365,0.9361,0.9345,0,0,0,0,0,0.9136,0.9154,0.9181,0.92,0.9209,0.9231,0.9243,0.9253,0.9274,0.9282,0.9301,0.9321,0.9341,0.9353,0.9373,0.9396,0.9402,0.9405,0.9405,0.9405,0.9407,0.942,0.9421,0.9406,0.9406,0.9406,0,0,0.9135,0.9155,0.9166,0.9197,0.9214,0.9232,0.9237,0.9257,0.9271,0.9285,0.9309,0.9323,0.9346,0.937,0.9381,0.9382,0.9412,0.9406,0.9406,0.9408,0.9421,0.9422,0.9423,0.9407,0.9407,0.9407,0,0,0.9144,0.9161,0.9178,0.9194,0.9219,0.9233,0.9237,0.9264,0.9274,0.9298,0.931,0.9326,0.936,0.9377,0.9389,0.9404,0.9412,0.941,0.9412,0.9424,0.9426,0.9427,0.9432,0.9434,0.9412,0.9412,0.9412,0,0.914,0.9169,0.9186,0.9205,0.9219,0.9233,0.925,0.9265,0.9295,0.9304,0.9304,0.9347,0.9364,0.9392,0.9395,0.9405,0.941,0.9407,0.9424,0.9425,0.9427,0.9432,0.9434,0.9412,0.9412,0.9412,0.9412,0,0.9163,0.9183,0.9194,0.9223,0.9237,0.9256,0.9275,0.9288,0.9298,0.9312,0.9336,0.9357,0.9381,0.9388,0.9398,0.9417,0.9417,0.942,0.9421,0.9427,0.9433,0.9435,0.9411,0.9411,0.9411,0.9411,0,0,0.9165,0.9202,0.9206,0.9219,0.9248,0.9263,0.9282,0.9306,0.9317,0.9337,0.9353,0.9382,0.9385,0.9399,0.9411,0.9422,0.9432,0.9424,0.9425,0.9425,0.9455,0.9452,0.9454,0.9438,0.9438,0.9438,0.9453,0,0.9177,0.9211,0.9227,0.9255,0.9273,0.9287,0.9303,0.9322,0.9336,0.9353,0.9369,0.9389,0.9392,0.9401,0.9412,0.9429,0.9439,0.9428,0.9453,0.9453,0.9446,0.9457,0.9454,0.9467,0.9455,0.9456,0.9456,0,0.9196,0.9216,0.9245,0.9272,0.928,0.9294,0.9318,0.9334,0.9356,0.9366,0.9382,0.9393,0.9413,0.9412,0.944,0.9432,0.9443,0.9453,0.9454,0.9457,0.9455,0.946,0.9471,0.9473,0.9459,0.9459,0.9459,0,0.9194,0.9229,0.9251,0.9261,0.9293,0.9302,0.9316,0.9337,0.9351,0.9371,0.938,0.9402,0.9414,0.9431,0.9448,0.9446,0.9475,0.9475,0.9483,0.9482,0.9488,0.9487,0.9501,0.9495,0.9495,0.9495,0.9495,0,0.9206,0.9224,0.925,0.9264,0.9283,0.9301,0.932,0.9335,0.9354,0.937,0.9384,0.9399,0.942,0.9438,0.9451,0.9472,0.9478,0.9486,0.9489,0.9484,0.9483,0.9492,0.9491,0.9496,0.9496,0.9496,0.9496,0,0.9208,0.9226,0.9251,0.9278,0.9285,0.9299,0.9322,0.9336,0.935,0.9371,0.9377,0.94,0.9421,0.944,0.9468,0.9477,0.9499,0.9503,0.9491,0.9493,0.95,0.9499,0.952,0.9523,0.9515,0.9515,0.9515,0,0.9214,0.9228,0.9257,0.9269,0.9282,0.9301,0.9315,0.9333,0.9347,0.9373,0.9383,0.9406,0.9425,0.9459,0.9478,0.95,0.9504,0.951,0.9508,0.9503,0.9504,0.9503,0.9505,0.951,0.951,0.951,0.951,0,0.9224,0.9232,0.9252,0.9274,0.929,0.9309,0.9328,0.9337,0.9359,0.9373,0.9396,0.941,0.944,0.9462,0.9486,0.95,0.9508,0.9511,0.9514,0.9509,0.9502,0.9506,0.9492,0.951,0.951,0.951,0.951,0.951,0.9228,0.9241,0.9263,0.9284,0.93,0.9318,0.9332,0.9348,0.9367,0.9392,0.9402,0.9425,0.9446,0.9479,0.9493,0.9511,0.9513,0.9517,0.9518,0.9519,0.9518,0.9499,0.9516,0.9516,0.9516,0.9516,0.9516,0,0.9238,0.9253,0.9273,0.9299,0.9315,0.9322,0.9344,0.9357,0.9377,0.9396,0.9415,0.9441,0.9462,0.9483,0.9506,0.9516,0.9521,0.9522,0.9521,0.9524,0.9516,0.9511,0.9517,0.9517,0.9517,0.9517,0.9517,0.9517,0.9245,0.9267,0.9279,0.9309,0.9324,0.9346,0.9358,0.9374,0.9389,0.9418,0.9436,0.9449,0.9469,0.9493,0.9514,0.9519,0.9527,0.9526,0.9533,0.9525,0.9524,0.9524,0.952,0.9528,0.9528,0.954,0.954,0.954]},{"header":{"parameterUnit":"m.s-1","parameterCategory":1,"la1":30.2991,"la2":30.254,"lo1":-89.0895,"lo2":-89.0444,"dy":0.0017,"dx":0.0017,"nx":28,"ny":28,"refTime":"2025-03-10T09:00:00:Z","depth":0,"parameterNumber":3,"parameterNumberName":"V-component_of_WINDS"},"data":[0,0,0,0,0,0,0,0,0,0,0,0,0,0,0,0,0,0,0,0,0,0,0,0,0,0,0,0,0,0,0,0,0,0,0,0,0,0,0,0,0,0,0,0,0,0,0,0,0,0,0,0,0,0,0,0,0,0,-1.2676,-1.2676,0,-1.2765,-1.2766,-1.2767,-1.2786,-1.2785,-1.2784,-1.2784,-1.2876,-1.2879,-1.2882,0,0,0,0,0,0,0,0,0,0,0,0,0,-1.2521,-1.2524,-1.2675,-1.2677,-1.2678,-1.2765,-1.2766,-1.2767,-1.2786,-1.2785,-1.2784,-1.2783,-1.2875,-1.2878,-1.2882,0,0,0,0,0,0,0,0,0,0,0,0,0,-1.2597,-1.2525,-1.2675,-1.2697,-1.27,-1.2765,-1.2766,-1.2768,-1.2786,-1.2785,-1.2784,-1.2783,-1.2874,-1.2878,-1.2883,-1.2932,0,0,-1.2897,-1.2899,0,0,0,0,0,0,0,0,-1.2593,-1.2603,-1.2693,-1.2696,-1.2699,-1.2763,-1.2746,-1.2823,-1.2786,-1.2753,-1.2784,-1.2782,-1.2839,-1.2847,-1.2866,-1.2936,-1.294,-1.2897,-1.29,-1.2902,-1.2903,0,0,0,0,0,0,0,-1.2588,-1.2599,-1.2711,-1.2694,-1.2698,-1.2703,-1.2713,-1.276,-1.2801,-1.2756,-1.2758,-1.2768,-1.2841,-1.2861,-1.2868,-1.2941,-1.2897,-1.2901,-1.2904,-1.2906,-1.3058,-1.3059,0,0,0,0,0,0,-1.2578,-1.2595,-1.2708,-1.2714,-1.2643,-1.2707,-1.2718,-1.2744,-1.28,-1.2808,-1.2769,-1.2769,-1.2854,-1.2863,-1.2871,-1.2934,-1.2902,-1.2906,-1.2909,-1.3057,-1.3058,-1.306,0,0,0,0,0,0,-1.2575,-1.2588,-1.2704,-1.2655,-1.267,-1.2711,-1.274,-1.2746,-1.2766,-1.281,-1.2817,-1.2782,-1.2853,-1.2865,-1.2917,-1.2937,-1.2908,-1.2913,-1.3055,-1.3057,-1.3059,-1.3058,0,0,0,0,0,0,-1.2571,-1.2587,-1.2606,-1.2655,-1.2672,-1.2748,-1.2741,-1.2748,-1.2774,-1.2775,-1.2825,-1.2832,-1.2853,-1.291,-1.2921,-1.2943,-1.2916,-1.3054,-1.3056,-1.3058,-1.3057,-1.306,-1.3063,0,0,0,0,0,-1.2565,-1.2602,-1.2607,-1.262,-1.2697,-1.2749,-1.2759,-1.2783,-1.2776,-1.2795,-1.2824,-1.283,-1.2933,-1.2915,-1.2928,-1.2952,-1.3053,-1.3056,-1.3058,-1.3055,-1.3059,-1.3062,0,0,0,0,0,0,-1.2554,-1.2608,-1.2615,-1.2668,-1.2704,-1.2752,-1.2778,-1.2786,-1.2825,-1.2824,-1.2852,-1.2863,-1.2914,-1.2938,-1.2917,-1.3003,-1.2992,-1.2998,-1.2986,-1.299,-1.2993,-1.2986,-1.292,0,0,0,0,0,-1.2557,-1.2595,-1.2641,-1.2684,-1.2702,-1.2736,-1.276,-1.2776,-1.2814,-1.2829,-1.2861,-1.2898,-1.2939,-1.2966,-1.3005,-1.306,-1.3072,-1.3082,-1.3085,-1.3088,-1.3092,-1.3125,-1.313,-1.3069,-1.3069,-1.3069,0,0,-1.2565,-1.26,-1.2622,-1.2683,-1.2712,-1.2752,-1.2749,-1.279,-1.282,-1.2836,-1.2887,-1.2912,-1.2955,-1.3009,-1.3035,-1.3031,-1.3112,-1.3091,-1.3093,-1.3096,-1.3128,-1.3134,-1.3139,-1.3071,-1.3071,-1.307,0,0,-1.2601,-1.263,-1.267,-1.27,-1.2744,-1.2768,-1.2777,-1.2824,-1.2842,-1.2894,-1.2907,-1.2942,-1.3012,-1.3043,-1.3067,-1.3115,-1.3124,-1.3127,-1.3143,-1.3174,-1.3179,-1.3184,-1.3202,-1.3208,-1.3132,-1.3132,-1.3132,0,-1.2605,-1.2665,-1.2689,-1.273,-1.2757,-1.2773,-1.2814,-1.2842,-1.2897,-1.2916,-1.291,-1.2999,-1.3029,-1.3091,-1.3103,-1.3122,-1.3134,-1.3122,-1.3176,-1.3181,-1.3186,-1.3204,-1.3211,-1.3132,-1.3132,-1.3132,-1.3132,0,-1.2669,-1.271,-1.2736,-1.279,-1.282,-1.2861,-1.2892,-1.2919,-1.2932,-1.2956,-1.301,-1.3046,-1.3095,-1.311,-1.3123,-1.3175,-1.3171,-1.3171,-1.3161,-1.3191,-1.3209,-1.3216,-1.3133,-1.3132,-1.3132,-1.3132,0,0,-1.2699,-1.2767,-1.2776,-1.2801,-1.2852,-1.2885,-1.2927,-1.2974,-1.2998,-1.3036,-1.3072,-1.3131,-1.3131,-1.316,-1.3176,-1.3203,-1.3241,-1.32,-1.3201,-1.3207,-1.3302,-1.3303,-1.331,-1.3246,-1.3247,-1.3248,-1.3299,0,-1.2742,-1.2817,-1.2841,-1.2904,-1.2943,-1.2959,-1.2996,-1.3032,-1.3055,-1.3092,-1.3118,-1.316,-1.3157,-1.3174,-1.3201,-1.323,-1.326,-1.3227,-1.3282,-1.3283,-1.3272,-1.3319,-1.332,-1.3366,-1.3305,-1.3307,-1.3307,0,-1.2801,-1.2841,-1.2908,-1.2956,-1.2973,-1.3006,-1.3052,-1.3086,-1.3128,-1.3143,-1.3175,-1.3189,-1.3235,-1.3222,-1.3285,-1.3262,-1.3286,-1.3304,-1.3306,-1.3313,-1.3298,-1.3329,-1.3381,-1.3388,-1.3318,-1.3317,-1.3317,0,-1.2819,-1.2889,-1.2939,-1.2959,-1.3016,-1.3038,-1.3063,-1.3103,-1.313,-1.3171,-1.3189,-1.3234,-1.3259,-1.3293,-1.332,-1.3308,-1.3382,-1.3371,-1.3397,-1.3396,-1.3413,-1.3412,-1.347,-1.3426,-1.3425,-1.3425,-1.3425,0,-1.2865,-1.2906,-1.2947,-1.2978,-1.3025,-1.3052,-1.3097,-1.3123,-1.3159,-1.3195,-1.3211,-1.3245,-1.3278,-1.3316,-1.3337,-1.3388,-1.3399,-1.3413,-1.3418,-1.3412,-1.3411,-1.3429,-1.3427,-1.3427,-1.3427,-1.3426,-1.3426,0,-1.2892,-1.2922,-1.2978,-1.3026,-1.304,-1.3072,-1.3114,-1.3145,-1.3169,-1.3215,-1.3228,-1.3266,-1.3312,-1.3342,-1.3401,-1.3415,-1.3471,-1.3475,-1.3457,-1.346,-1.3485,-1.3483,-1.3559,-1.3571,-1.3517,-1.3517,-1.3518,0,-1.292,-1.2952,-1.3005,-1.3031,-1.3055,-1.3096,-1.3125,-1.3152,-1.3181,-1.3231,-1.3256,-1.3304,-1.3343,-1.3417,-1.345,-1.3496,-1.3502,-1.3525,-1.3509,-1.3502,-1.3504,-1.3502,-1.3506,-1.3528,-1.3529,-1.3529,-1.3529,0,-1.2967,-1.2981,-1.302,-1.3066,-1.3099,-1.3137,-1.3174,-1.3194,-1.3228,-1.326,-1.3308,-1.3338,-1.3399,-1.3447,-1.3495,-1.3521,-1.3532,-1.3534,-1.3543,-1.3538,-1.3527,-1.3535,-1.3466,-1.3533,-1.3532,-1.3532,-1.3532,-1.3532,-1.2997,-1.3027,-1.3069,-1.3113,-1.3144,-1.3179,-1.3211,-1.3239,-1.328,-1.3331,-1.3345,-1.3395,-1.3437,-1.3504,-1.353,-1.3571,-1.3568,-1.358,-1.3583,-1.3586,-1.3588,-1.352,-1.3579,-1.3579,-1.3579,-1.3579,-1.3579,0,-1.3046,-1.3074,-1.3115,-1.3167,-1.3202,-1.3208,-1.325,-1.3279,-1.3323,-1.3361,-1.34,-1.3456,-1.3502,-1.3539,-1.3587,-1.3612,-1.3618,-1.3624,-1.3623,-1.3629,-1.3587,-1.3575,-1.3618,-1.3618,-1.3618,-1.3618,-1.3618,-1.3618,-1.3076,-1.3128,-1.3146,-1.3213,-1.3241,-1.329,-1.3314,-1.3346,-1.3377,-1.3438,-1.3477,-1.3501,-1.3539,-1.359,-1.3633,-1.3643,-1.366,-1.3665,-1.3676,-1.3636,-1.3632,-1.3628,-1.3617,-1.3668,-1.3668,-1.3716,-1.3716,-1.3716]}]]